Flag for U.S.A. Weather past 2 weeks in Augusta, Maine, U.S.A.

Now
53 °F

Clear.


Feels Like: 52 °F
Forecast: 46 / 63 °F
Wind: 5 mph from Northwest

Location: Augusta State Airport

Current Time: Sep 24, 2014 at 1:07:19 AM

Latest Report: Sep 23, 2014 at 11:53 PM


Visibility: 10 mi

Pressure: 30.41 "Hg

Humidity: 80%

Dew point: 47 °F

Location of AugustaLocation

Historic Weather in Augusta — Graph

°F

Augusta temperature yesterday

Maximum temperature yesterday: 64 °F (at 1:53 PM)
Minimum temperature yesterday: 45 °F (at 5:53 AM)
Average temperature yesterday: 54 °F

Past Weeks' High & Low Weather Summary

 TemperatureHumidityPressure
High69 °F (Sep 10, 1:53 PM)100% (Sep 9, 7:03 AM)30.44 "Hg (Sep 9, 7:03 AM)
Low36 °F (Sep 19, 6:53 AM)25% (Sep 19, 4:53 PM)29.47 "Hg (Sep 22, 3:53 AM)
Average55 °F75%30.09 "Hg
* Reported Sep 8 11:53 PM — Sep 23 11:53 PM, Augusta, Weather by CustomWeather, © 2014

Note: Actual official high and low records may vary slightly from our data, if they occured in-between our weather recording intervals... More about our weather records

Advertising

Augusta weather history for previous 24 hours

 ConditionsComfort  
Time TempWeatherWind HumidityBarometerVisibility
11:53 PM
Sep 23
53 °FClear.5 mph80%30.41 "Hg10 mi
10:53 PM55 °FClear.6 mph74%30.39 "Hg10 mi
9:53 PM55 °FClear.6 mph72%30.38 "Hg10 mi
8:53 PM57 °FClear.5 mph67%30.35 "Hg10 mi
7:53 PM57 °FPassing clouds.5 mph69%30.32 "Hg10 mi
6:53 PM59 °FOvercast.6 mph62%30.29 "Hg10 mi
5:53 PM61 °FOvercast.7 mph56%30.27 "Hg10 mi
4:53 PM63 °FPassing clouds.7 mph50%30.24 "Hg10 mi
3:53 PM64 °FPartly sunny.9 mph47%30.21 "Hg10 mi
2:53 PM63 °FSunny.9 mph47%30.21 "Hg10 mi
1:53 PM64 °FSunny.16 mph45%30.20 "Hg10 mi
12:53 PM63 °FSunny.15 mph47%30.21 "Hg10 mi
11:53 AM60 °FPassing clouds.15 mph47%30.21 "Hg10 mi
10:53 AM58 °FPartly sunny.9 mph54%30.21 "Hg10 mi
9:53 AM54 °FScattered clouds.6 mph59%30.20 "Hg10 mi
8:53 AM51 °FSunny.8 mph61%30.19 "Hg10 mi
7:53 AM48 °FSunny.6 mph68%30.17 "Hg10 mi
6:53 AM45 °FClear.6 mph74%30.15 "Hg10 mi
5:53 AM45 °FClear.5 mph68%30.12 "Hg10 mi
4:53 AM46 °FClear.8 mph68%30.10 "Hg10 mi
3:53 AM47 °FClear.7 mph66%30.08 "Hg10 mi
2:53 AM46 °FClear.7 mph71%30.06 "Hg10 mi
1:53 AM47 °FClear.7 mph69%30.05 "Hg10 mi
Weather by CustomWeather, © 2014

See weather overviewHow to use our weather pages